Weather History for Georgetown, SC

Change the Weather History Date:

Friday, January 17, 2014

  Actual Average Record
Temperature  
Mean Temperature 44 °F -  
Max Temperature 60 °F 59 °F 77 °F (2013)
Min Temperature 28 °F 33 °F 28 °F (2014)
Degree Days  
Heating Degree Days 21    
Moisture  
Dew Point 37 °F    
Average Humidity 75    
Maximum Humidity 100    
Minimum Humidity 42    
Precipitation  
Precipitation 0.01 in - - ()
Sea Level Pressure  
Sea Level Pressure 30.04 in    
Wind  
Wind Speed 6 mph (SW)    
Max Wind Speed 15 mph    
Max Gust Speed 29 mph    
Visibility 10 miles    
Events Rain , Thunderstorm    
Averages and records for this station are not official NWS values.
T = Trace of Precipitation, MM = Missing Value Source: NWS Daily Summary

Daily Weather History Graph

Daily Weather History Graph

Search for Another Location

Airport:

Trip Planner

Search our weather history database for the weather conditions in past years. The results will help you decide how hot, cold, wet, or windy it might be!

Date:

Astronomy

Jan. 17, 2014 Rise Set
Actual Time 7:20 AM EST 5:34 PM EST
Civil Twilight 6:53 AM EST 6:01 PM EST
Nautical Twilight 6:23 AM EST 6:31 PM EST
Astronomical Twilight 5:53 AM EST 7:01 PM EST
Moon 7:12 PM EST (1/17) 7:53 AM EST (1/17)
Length of Visible Light 11h 07m
Length of Day
10h 14m
Full, 98% of the Moon is Illuminated
Jan 17
Full
Jan 24
Last Quarter
Jan 30
New
Feb 6
First Quarter
Feb 14
Full

Hourly Weather History & Observations

Time (EST) Temp. Windchill Dew Point Humidity Pressure Visibility Wind Dir Wind Speed Gust Speed Precip Events Conditions
12:15 AM 32.0 °F - 32.0 °F 100% 30.10 in 10.0 mi Calm Calm - N/A   Clear
12:35 AM 30.2 °F 26.7 °F 28.4 °F 93% 30.10 in 10.0 mi SW 3.5 mph - N/A   Clear
12:55 AM 32.0 °F 28.7 °F 30.2 °F 93% 30.11 in 10.0 mi SW 3.5 mph - N/A   Clear
1:15 AM 30.2 °F 25.4 °F 28.4 °F 93% 30.11 in 10.0 mi WSW 4.6 mph - N/A   Clear
1:35 AM 32.0 °F 27.5 °F 28.4 °F 87% 30.11 in 10.0 mi WSW 4.6 mph - N/A   Clear
1:55 AM 30.2 °F 25.4 °F 28.4 °F 93% 30.11 in 10.0 mi WSW 4.6 mph - N/A   Clear
2:15 AM 30.2 °F 25.4 °F 28.4 °F 93% 30.12 in 10.0 mi WSW 4.6 mph - N/A   Clear
2:35 AM 30.2 °F 24.3 °F 28.4 °F 93% 30.12 in 10.0 mi WSW 5.8 mph - N/A   Clear
2:55 AM 32.0 °F 28.7 °F 28.4 °F 87% 30.11 in 10.0 mi WSW 3.5 mph - N/A   Clear
3:15 AM 30.2 °F 24.3 °F 28.4 °F 93% 30.11 in 10.0 mi WSW 5.8 mph - N/A   Clear
3:35 AM 32.0 °F 27.5 °F 28.4 °F 87% 30.11 in 10.0 mi WSW 4.6 mph - N/A   Clear
3:55 AM 32.0 °F 28.7 °F 26.6 °F 80% 30.10 in 10.0 mi West 3.5 mph - N/A   Clear
4:15 AM 30.2 °F 24.3 °F 26.6 °F 86% 30.09 in 10.0 mi WSW 5.8 mph - N/A   Clear
4:35 AM 30.2 °F 24.3 °F 26.6 °F 86% 30.10 in 10.0 mi WSW 5.8 mph - N/A   Clear
4:55 AM 32.0 °F 26.4 °F 28.4 °F 87% 30.09 in 10.0 mi West 5.8 mph - N/A   Clear
5:15 AM 32.0 °F 28.7 °F 26.6 °F 80% 30.09 in 10.0 mi WSW 3.5 mph - N/A   Clear
5:35 AM 32.0 °F 27.5 °F 26.6 °F 80% 30.09 in 10.0 mi WSW 4.6 mph - N/A   Clear
5:55 AM 32.0 °F 27.5 °F 26.6 °F 80% 30.10 in 10.0 mi SW 4.6 mph - N/A   Clear
6:15 AM 30.2 °F - 26.6 °F 86% 30.10 in 10.0 mi Calm Calm - N/A   Clear
6:35 AM 32.0 °F - 26.6 °F 80% 30.10 in 10.0 mi Calm Calm - N/A   Clear
6:55 AM 28.4 °F - 26.6 °F 93% 30.10 in 10.0 mi Calm Calm - N/A   Clear
7:15 AM 28.4 °F - 28.4 °F 100% 30.10 in 10.0 mi Calm Calm - N/A   Clear
7:35 AM 28.4 °F - 28.4 °F 100% 30.11 in 10.0 mi Calm Calm - N/A   Clear
7:55 AM 30.2 °F - 28.4 °F 93% 30.11 in 10.0 mi Calm Calm - N/A   Clear
8:15 AM 32.0 °F 28.7 °F 30.2 °F 93% 30.12 in 10.0 mi SSW 3.5 mph - N/A   Clear
8:35 AM 33.8 °F 30.8 °F 30.2 °F 87% 30.12 in 10.0 mi SSW 3.5 mph - N/A   Clear
8:55 AM 37.4 °F 32.8 °F 30.2 °F 75% 30.13 in 10.0 mi SW 5.8 mph - N/A   Clear
9:15 AM 41.0 °F 35.8 °F 30.2 °F 65% 30.13 in 10.0 mi SW 8.1 mph - N/A   Clear
9:35 AM 42.8 °F 37.5 °F 30.2 °F 61% 30.13 in 10.0 mi SW 9.2 mph - N/A   Clear
9:55 AM 46.4 °F 42.9 °F 30.2 °F 53% 30.12 in 10.0 mi SW 6.9 mph - N/A   Clear
10:15 AM 48.2 °F - 30.2 °F 50% 30.12 in 10.0 mi SW 9.2 mph - N/A   Clear
10:35 AM 50.0 °F - 32.0 °F 50% 30.12 in 10.0 mi WSW 10.4 mph - N/A   Clear
10:55 AM 51.8 °F - 32.0 °F 47% 30.12 in 10.0 mi WSW 12.7 mph - N/A   Clear
11:15 AM 53.6 °F - 32.0 °F 44% 30.10 in 10.0 mi WSW 9.2 mph 16.1 mph N/A   Clear
11:35 AM 53.6 °F - 33.8 °F 47% 30.09 in 10.0 mi SW 10.4 mph - N/A   Clear
11:55 AM 55.4 °F - 33.8 °F 44% 30.07 in 10.0 mi WSW 10.4 mph 16.1 mph N/A   Clear
12:15 PM 57.2 °F - 35.6 °F 44% 30.06 in 10.0 mi SSW 10.4 mph 17.3 mph N/A   Clear
12:35 PM 59.0 °F - 35.6 °F 42% 30.04 in 10.0 mi SSW 12.7 mph - N/A   Clear
12:55 PM 59.0 °F - 35.6 °F 42% 30.03 in 10.0 mi SW 11.5 mph 18.4 mph N/A   Clear
1:15 PM 59.0 °F - 37.4 °F 45% 30.01 in 10.0 mi SW 12.7 mph 18.4 mph N/A   Clear
1:35 PM 60.8 °F - 37.4 °F 42% 30.00 in 10.0 mi South 8.1 mph 17.3 mph N/A   Clear
1:55 PM 60.8 °F - 39.2 °F 45% 29.99 in 10.0 mi South 10.4 mph 18.4 mph N/A   Clear
2:15 PM 59.0 °F - 41.0 °F 51% 29.99 in 10.0 mi South 13.8 mph 18.4 mph N/A   Clear
2:35 PM 59.0 °F - 41.0 °F 51% 29.98 in 10.0 mi South 10.4 mph - N/A   Clear
2:55 PM 59.0 °F - 42.8 °F 55% 29.98 in 10.0 mi South 13.8 mph - N/A   Clear
3:15 PM 57.2 °F - 42.8 °F 59% 29.98 in 10.0 mi South 12.7 mph 18.4 mph N/A   Clear
3:35 PM 55.4 °F - 42.8 °F 63% 29.97 in 10.0 mi SSW 10.4 mph - N/A   Clear
3:55 PM 53.6 °F - 42.8 °F 67% 29.97 in 10.0 mi South 11.5 mph 18.4 mph N/A   Clear
4:15 PM 55.4 °F - 44.6 °F 67% 29.97 in 10.0 mi SSW 9.2 mph - N/A   Clear
4:35 PM 53.6 °F - 44.6 °F 72% 29.97 in 10.0 mi SSW 10.4 mph 18.4 mph N/A   Clear
4:55 PM 53.6 °F - 44.6 °F 72% 29.97 in 10.0 mi SSW 15.0 mph 18.4 mph N/A   Clear
5:15 PM 51.8 °F - 44.6 °F 76% 29.96 in 10.0 mi SSW 12.7 mph 17.3 mph N/A   Clear
5:35 PM 51.8 °F - 44.6 °F 76% 29.96 in 10.0 mi SSW 13.8 mph 19.6 mph N/A   Clear
5:55 PM 51.8 °F - 44.6 °F 76% 29.96 in 10.0 mi SSW 13.8 mph 18.4 mph N/A   Clear
6:15 PM 51.8 °F - 46.4 °F 82% 29.96 in 10.0 mi SSW 10.4 mph 17.3 mph N/A   Clear
6:35 PM 51.8 °F - 46.4 °F 82% 29.95 in 10.0 mi SSW 12.7 mph - N/A   Clear
6:55 PM 51.8 °F - 46.4 °F 82% 29.95 in 10.0 mi SSW 11.5 mph - N/A   Clear
7:15 PM 51.8 °F - 46.4 °F 82% 29.95 in 10.0 mi SSW 10.4 mph - N/A   Clear
7:35 PM 51.8 °F - 48.2 °F 88% 29.95 in 10.0 mi South 9.2 mph 16.1 mph N/A   Clear
7:55 PM 53.6 °F - 48.2 °F 82% 29.95 in 10.0 mi SSW 12.7 mph 19.6 mph N/A   Clear
8:15 PM 53.6 °F - 48.2 °F 82% 29.95 in 10.0 mi SSW 10.4 mph 19.6 mph N/A   Clear
8:35 PM 53.6 °F - 48.2 °F 82% 29.95 in 10.0 mi SSW 10.4 mph 18.4 mph N/A   Clear
8:55 PM 53.6 °F - 48.2 °F 82% 29.95 in 10.0 mi SSW 10.4 mph 21.9 mph N/A   Clear
9:15 PM 53.6 °F - 48.2 °F 82% 29.95 in 10.0 mi SSW 13.8 mph - N/A   Clear
9:35 PM 53.6 °F - 50.0 °F 88% 29.94 in 10.0 mi SSW 12.7 mph 19.6 mph N/A   Clear
9:55 PM 53.6 °F - 50.0 °F 88% 29.94 in 10.0 mi SW 13.8 mph 18.4 mph N/A   Clear
10:15 PM 55.4 °F - 50.0 °F 82% 29.93 in 10.0 mi SW 11.5 mph - N/A   Clear
10:35 PM 53.6 °F - 50.0 °F 88% 29.93 in 10.0 mi SW 10.4 mph 17.3 mph N/A   Clear
10:55 PM 53.6 °F - 48.2 °F 82% 29.92 in 10.0 mi WSW 8.1 mph - N/A   Scattered Clouds
11:15 PM 53.6 °F - 48.2 °F 82% 29.93 in 10.0 mi WSW 10.4 mph - N/A   Overcast
11:35 PM 51.8 °F - 44.6 °F 76% 29.94 in 10.0 mi West 12.7 mph 28.8 mph 0.01 in Rain , Thunderstorm Light Thunderstorms and Rain
11:55 PM 50.0 °F - 42.8 °F 76% 29.93 in 10.0 mi WSW 9.2 mph 19.6 mph 0.01 in Rain , Thunderstorm Light Thunderstorms and Rain